CW6617 Weather Reports


time (UTC)temp
C
wind
direction
speed
KPH
gust
KPH
rain 1hr
cm
rain 24hr
cm
rain mn
cm
humidity
%
barometer
mb
20260502130704 22 159 9.7 19.3 0.00 0.00 0.00 50 1014.6
20260502130204 22 206 4.8 16.1 0.00 0.00 0.00 49 1014.5
20260502121704 21 171 8.0 12.9 0.00 0.00 0.00 52 1015.4
20260502121203 21 236 1.6 12.9 0.00 0.00 0.00 53 1015.6
20260502120703 22 189 8.0 19.3 0.00 0.00 0.00 52 1015.7
20260502120203 22 177 3.2 12.9 0.00 0.00 0.00 53 1015.8
20260502114703 20 344 3.2 8.0 0.00 0.00 0.00 54 1015.8
20260502113703 20 165 8.0 20.9 0.00 0.00 0.00 51 1016.2
20260502113204 21 176 3.2 12.9 0.00 0.00 0.00 54 1016.3
20260502111704 20 166 3.2 11.3 0.00 0.00 0.00 56 1016.3
20260502111203 19 183 6.4 14.5 0.00 0.00 0.00 57 1016.3
20260502110704 19 215 3.2 12.9 0.00 0.00 0.00 57 1016.4
20260502104703 18 242 1.6 8.0 0.00 0.00 0.00 63 1016.7
20260502103704 18 193 8.0 19.3 0.00 0.00 0.00 64 1017.0
20260502103204 18 165 8.0 14.5 0.00 0.00 0.00 63 1017.1
20260502101204 17 286 1.6 4.8 0.00 0.00 0.00 69 1017.2
20260502100704 16 254 3.2 8.0 0.00 0.00 0.00 71 1017.3
20260502091203 13 164 0.0 3.2 0.00 0.00 0.00 83 1017.7
20260502090704 13 164 1.6 3.2 0.00 0.00 0.00 83 1017.8
20260502090203 13 164 1.6 8.0 0.00 0.00 0.00 83 1018.0
20260502071204 10 168 0.0 3.2 0.00 0.00 0.00 94 1018.4
20260502070204 10 168 0.0 9.7 0.00 0.00 0.00 94 1018.5
20260502064703 10 163 0.0 3.2 0.00 0.00 0.00 94 1018.4
20260502064204 10 163 1.6 3.2 0.00 0.00 0.00 94 1018.4
20260502063703 10 163 3.2 8.0 0.00 0.00 0.00 94 1018.3
20260502063203 10 163 0.0 9.7 0.00 0.00 0.00 94 1018.3
20260502061704 10 161 3.2 8.0 0.00 0.00 0.00 94 1018.4
20260502061203 9 161 4.8 8.0 0.00 0.00 0.00 94 1018.5
20260502060704 9 161 1.6 3.2 0.00 0.00 0.00 94 1018.4
20260502060205 10 159 0.0 8.0 0.00 0.00 0.00 94 1018.4
20260502054704 9 159 4.8 9.7 0.00 0.00 0.00 94 1018.4
20260502054204 10 157 1.6 3.2 0.00 0.00 0.00 94 1018.3
20260502053703 10 155 1.6 3.2 0.00 0.00 0.00 94 1018.3
20260502051704 10 171 6.4 11.3 0.00 0.00 0.00 94 1018.3
20260502051203 10 179 3.2 9.7 0.00 0.00 0.00 94 1018.3
20260502050704 10 178 4.8 8.0 0.00 0.00 0.00 94 1018.3
20260502050203 10 194 1.6 4.8 0.00 0.00 0.00 94 1018.2
20260502044704 10 196 0.0 3.2 0.00 0.00 0.00 94 1018.2
20260502044203 10 196 0.0 3.2 0.00 0.00 0.00 94 1018.2
20260502043704 10 196 1.6 3.2 0.00 0.00 0.00 94 1018.2
20260502043203 10 196 3.2 8.0 0.00 0.00 0.00 94 1018.1
20260502041704 10 179 3.2 4.8 0.00 0.00 0.00 94 1018.2
20260502041203 10 179 0.0 3.2 0.00 0.00 0.00 94 1018.3
20260502040703 10 179 0.0 3.2 0.00 0.00 0.00 94 1018.3
20260502040204 10 179 3.2 9.7 0.00 0.00 0.00 94 1018.3
20260502034704 10 175 1.6 4.8 0.00 0.00 0.00 94 1018.3
20260502034204 10 175 3.2 4.8 0.00 0.00 0.00 94 1018.4
20260502033704 10 174 3.2 4.8 0.00 0.00 0.00 94 1018.5
20260502031703 10 174 1.6 4.8 0.00 0.00 0.00 93 1018.6
20260502030703 10 174 1.6 3.2 0.00 0.00 0.00 93 1018.7
20260502030204 10 174 0.0 9.7 0.00 0.00 0.00 93 1018.6
20260502024704 10 160 4.8 11.3 0.00 0.00 0.00 92 1018.7
20260502024204 10 169 8.0 9.7 0.00 0.00 0.00 92 1018.8
20260502023704 10 171 3.2 8.0 0.00 0.00 0.00 91 1018.7
20260502023204 10 171 4.8 9.7 0.00 0.00 0.00 91 1018.7
20260502021704 10 166 3.2 9.7 0.00 0.00 0.00 91 1018.7
20260502021204 10 165 4.8 8.0 0.00 0.00 0.00 91 1018.7
20260502020704 10 165 4.8 9.7 0.00 0.00 0.00 91 1018.8
20260502020204 10 165 4.8 9.7 0.00 0.00 0.00 91 1018.7
20260502014703 10 170 4.8 9.7 0.00 0.00 0.00 91 1018.8
20260502014204 10 176 3.2 8.0 0.00 0.00 0.00 91 1018.9
20260502013703 10 175 3.2 4.8 0.00 0.00 0.00 91 1018.8
20260502013203 10 175 3.2 9.7 0.00 0.00 0.00 91 1018.9
20260502011704 10 172 3.2 4.8 0.00 0.00 0.00 90 1018.9
20260502011203 10 172 0.0 1.6 0.00 0.00 0.00 89 1019.0
20260502010704 10 172 0.0 0.0 0.00 0.00 0.00 89 1019.0
20260502004704 11 172 0.0 1.6 0.00 0.00 0.00 89 1019.2
20260502004203 11 172 0.0 3.2 0.00 0.00 0.00 89 1019.2
20260502003704 11 172 0.0 3.2 0.00 0.00 0.00 89 1019.4
20260502003203 11 172 1.6 4.8 0.00 0.00 0.00 89 1019.4
20260502001704 11 172 1.6 4.8 0.00 0.00 0.00 89 1019.7
20260502001204 11 172 3.2 4.8 0.00 0.00 0.00 89 1019.7
20260502000204 11 173 4.8 9.7 0.00 0.00 0.00 88 1019.7
20260501234203 11 171 3.2 8.0 0.00 0.00 0.00 87 1019.7
20260501233704 11 171 3.2 8.0 0.00 0.00 0.00 87 1019.7
20260501233204 11 171 3.2 8.0 0.00 0.00 0.00 86 1019.8
20260501231704 11 171 3.2 8.0 0.00 0.00 0.00 85 1019.8
20260501231203 11 171 1.6 3.2 0.00 0.00 0.00 85 1019.8
20260501230704 11 171 1.6 3.2 0.00 0.00 0.00 84 1019.8
20260501230203 11 171 3.2 9.7 0.00 0.00 0.00 84 1019.9
20260501224704 12 171 4.8 8.0 0.00 0.00 0.00 83 1019.9
20260501224203 12 167 6.4 11.3 0.00 0.00 0.00 83 1019.8
20260501223204 12 160 4.8 12.9 0.00 0.00 0.00 81 1019.8
20260501221704 12 167 4.8 9.7 0.00 0.00 0.00 80 1020.0
20260501221203 12 167 4.8 8.0 0.00 0.00 0.00 79 1019.8
20260501220704 12 167 3.2 8.0 0.00 0.00 0.00 79 1019.7
20260501220203 12 173 3.2 4.8 0.00 0.00 0.00 78 1019.8
20260501214704 13 172 1.6 4.8 0.00 0.00 0.00 77 1019.8
20260501214203 13 173 4.8 9.7 0.00 0.00 0.00 76 1019.8
20260501213704 13 167 1.6 9.7 0.00 0.00 0.00 75 1019.7
20260501211204 14 172 9.7 14.5 0.00 0.00 0.00 73 1019.8
20260501210704 14 174 6.4 16.1 0.00 0.00 0.00 73 1019.8
20260501210204 14 176 9.7 14.5 0.00 0.00 0.00 73 1019.6
20260501204704 15 180 8.0 12.9 0.00 0.00 0.00 74 1019.6
20260501203703 15 163 4.8 12.9 0.00 0.00 0.00 75 1019.6
20260501203204 15 164 8.0 16.1 0.00 0.00 0.00 75 1019.7
20260501201704 16 168 8.0 11.3 0.00 0.00 0.00 75 1019.5
20260501200704 16 175 8.0 11.3 0.00 0.00 0.00 75 1019.5
20260501194703 16 161 8.0 12.9 0.00 0.00 0.00 73 1019.4
20260501193704 17 177 8.0 11.3 0.00 0.00 0.00 72 1019.3
20260501193204 17 178 9.7 11.3 0.00 0.00 0.00 72 1019.3
20260501191703 17 183 6.4 12.9 0.00 0.00 0.00 71 1019.2
20260501191204 17 168 4.8 12.9 0.00 0.00 0.00 71 1019.2
20260501190205 17 178 3.2 11.3 0.00 0.00 0.00 70 1019.1
20260501183204 18 182 8.0 11.3 0.00 0.00 0.00 69 1019.2
20260501181704 18 176 6.4 14.5 0.00 0.00 0.00 68 1019.2
20260501181204 19 186 3.2 11.3 0.00 0.00 0.00 67 1019.0
20260501180204 19 238 8.0 16.1 0.00 0.00 0.00 67 1019.0
20260501173704 20 187 8.0 19.3 0.00 0.00 0.00 67 1019.0
20260501173204 20 168 12.9 20.9 0.00 0.00 0.00 66 1019.1
20260501171704 20 187 9.7 20.9 0.00 0.00 0.00 65 1019.1
20260501171204 21 212 6.4 12.9 0.00 0.00 0.00 64 1019.1
20260501170704 21 186 11.3 20.9 0.00 0.00 0.00 64 1019.1
20260501170204 21 176 11.3 20.9 0.00 0.00 0.00 64 1019.0
20260501164703 21 174 12.9 25.7 0.00 0.00 0.00 64 1019.0
20260501164203 21 173 17.7 24.1 0.00 0.00 0.00 63 1019.1
20260501163204 21 211 6.4 20.9 0.00 0.00 0.00 64 1019.0
20260501161704 21 170 9.7 16.1 0.00 0.00 0.00 66 1019.0
20260501160704 22 184 11.3 20.9 0.00 0.00 0.00 65 1019.1
20260501160203 21 178 16.1 27.4 0.00 0.00 0.00 66 1019.1
20260501154703 23 204 9.7 20.9 0.00 0.00 0.00 61 1019.1
20260501153704 23 190 8.0 19.3 0.00 0.00 0.00 61 1019.0
20260501153205 23 183 9.7 24.1 0.00 0.00 0.00 61 1019.1
20260501151704 23 172 14.5 20.9 0.00 0.00 0.00 59 1019.1
20260501151203 24 227 8.0 20.9 0.00 0.00 0.00 58 1019.1
20260501150704 24 211 8.0 14.5 0.00 0.00 0.00 57 1019.1
20260501150204 24 188 11.3 22.5 0.00 0.00 0.00 57 1019.2
20260501144204 23 167 19.3 25.7 0.00 0.00 0.00 58 1019.3
20260501143703 23 183 14.5 22.5 0.00 0.00 0.00 60 1019.1
20260501143203 23 180 9.7 20.9 0.00 0.00 0.00 59 1019.2
20260501141704 25 171 14.5 24.1 0.00 0.00 0.00 54 1019.5
20260501141203 25 190 9.7 14.5 0.00 0.00 0.00 55 1019.1
20260501140703 25 174 11.3 20.9 0.00 0.00 0.00 53 1019.1
20260501140203 26 208 11.3 24.1 0.00 0.00 0.00 52 1019.1